Weather History for KMKO - May, 2013

Change the Weather History Date:

Saturday, May 18, 2013

  Actual Average Record
Temperature  
Mean Temperature 78 °F -  
Max Temperature 86 °F 77 °F 89 °F (1998)
Min Temperature 70 °F 56 °F 46 °F (2002)
Cooling Degree Days 13    
Growing Degree Days 28 (Base 50)    
Moisture  
Dew Point 72 °F    
Average Humidity 86    
Maximum Humidity 100    
Minimum Humidity 67    
Precipitation  
Precipitation 0.00 in - - ()
Sea Level Pressure  
Sea Level Pressure 29.83 in    
Wind  
Wind Speed 9 mph (SSE)    
Max Wind Speed 15 mph    
Max Gust Speed 21 mph    
Visibility 6 miles    
Events Rain    
Averages and records for this station are not official NWS values.
T = Trace of Precipitation, MM = Missing Value Source: NWS Daily Summary

Daily Weather History Graph

Daily Weather History Graph

Search for Another Location

Airport or City:

Trip Planner

Search our weather history database for the weather conditions in past years. The results will help you decide how hot, cold, wet, or windy it might be!

Date:

Astronomy

May. 18, 2013 Rise Set
Actual Time 6:14 AM CDT 8:22 PM CDT
Civil Twilight 5:45 AM CDT 8:50 PM CDT
Nautical Twilight 5:10 AM CDT 9:25 PM CDT
Astronomical Twilight 4:32 AM CDT 10:03 PM CDT
Moon 1:40 PM CDT (5/18) 1:52 AM CDT (5/18)
Length of Visible Light 15h 05m
Length of Day
14h 08m
First Quarter, 55% of the Moon is Illuminated
May 18
First Quarter
May 24
Full
May 31
Last Quarter
Jun 8
New
Jun 16
First Quarter

Hourly Weather History & Observations

Time (CDT) Temp. Heat Index Dew Point Humidity Pressure Visibility Wind Dir Wind Speed Gust Speed Precip Events Conditions
12:53 AM 71.1 °F - 70.0 °F 96% 29.86 in 7.0 mi SSE 5.8 mph - N/A   Clear
1:53 AM 70.0 °F - 70.0 °F 100% 29.85 in 6.0 mi SE 6.9 mph - N/A   Partly Cloudy
2:53 AM 70.0 °F - 70.0 °F 100% 29.85 in 5.0 mi SE 5.8 mph - N/A   Mostly Cloudy
3:53 AM 70.0 °F - 70.0 °F 100% 29.84 in 5.0 mi SE 4.6 mph - N/A   Scattered Clouds
4:53 AM 71.1 °F - 70.0 °F 96% 29.84 in 5.0 mi SSE 9.2 mph - N/A   Mostly Cloudy
5:53 AM 70.0 °F - 69.1 °F 97% 29.84 in 5.0 mi ESE 9.2 mph - N/A   Clear
6:53 AM 71.1 °F - 70.0 °F 96% 29.86 in 4.0 mi SE 9.2 mph - N/A   Partly Cloudy
7:27 AM 71.6 °F - 71.6 °F 100% 29.88 in 4.0 mi SE 8.1 mph - N/A   Mostly Cloudy
7:53 AM 73.9 °F - 72.0 °F 93% 29.86 in 4.0 mi SE 11.5 mph - N/A   Overcast
8:28 AM 75.2 °F - 71.6 °F 89% 29.88 in 4.0 mi SSE 10.4 mph - N/A   Scattered Clouds
8:53 AM 75.9 °F - 73.0 °F 91% 29.86 in 4.0 mi SE 11.5 mph - N/A   Clear
9:26 AM 77.0 °F - 73.4 °F 89% 29.88 in 4.0 mi SSE 12.7 mph - N/A   Mostly Cloudy
9:53 AM 78.1 °F - 73.9 °F 87% 29.87 in 4.0 mi SSE 13.8 mph 19.6 mph N/A   Mostly Cloudy
10:53 AM 81.0 °F 85.8 °F 73.0 °F 77% 29.87 in 5.0 mi South 15.0 mph 20.7 mph N/A   Haze
11:24 AM 78.8 °F - 73.4 °F 83% 29.89 in 5.0 mi South 11.5 mph - 0.00 in Rain Light Rain
11:53 AM 80.1 °F 84.2 °F 73.0 °F 79% 29.87 in 5.0 mi South 12.7 mph 18.4 mph 0.00 in   Haze
12:53 PM 81.0 °F 85.8 °F 73.0 °F 77% 29.84 in 5.0 mi SSE 11.5 mph - N/A   Haze
2:53 PM 84.9 °F 93.3 °F 75.0 °F 72% 29.81 in 5.0 mi South 12.7 mph - N/A   Haze
3:53 PM 84.0 °F 91.2 °F 73.9 °F 72% 29.80 in 5.0 mi SSE 12.7 mph - N/A   Haze
5:53 PM 86.0 °F 93.8 °F 73.9 °F 67% 29.78 in 6.0 mi SSE 10.4 mph - N/A   Haze
6:53 PM 84.0 °F 90.2 °F 73.0 °F 69% 29.75 in 6.0 mi SSE 10.4 mph - N/A   Haze
7:28 PM 80.6 °F 84.6 °F 71.6 °F 74% 29.78 in 7.0 mi SSE 9.2 mph - N/A   Partly Cloudy
7:53 PM 80.1 °F 83.8 °F 72.0 °F 76% 29.77 in 7.0 mi South 6.9 mph - N/A   Clear
8:53 PM 78.1 °F - 72.0 °F 81% 29.75 in 8.0 mi SE 10.4 mph - N/A   Clear
9:53 PM 77.0 °F - 71.1 °F 82% 29.77 in 9.0 mi SSE 6.9 mph - N/A   Clear
10:53 PM 77.0 °F - 71.1 °F 82% 29.79 in 8.0 mi SE 8.1 mph - N/A   Clear
11:53 PM 75.9 °F - 71.1 °F 85% 29.79 in 8.0 mi SSE 5.8 mph - N/A   Clear